Weather History for Gadsden, AL

Change the Weather History Date:

Monday, April 9, 2012

  Actual Average Record
Temperature  
Mean Temperature 58 °F -  
Max Temperature 73 °F 69 °F 86 °F (2011)
Min Temperature 44 °F 46 °F 32 °F (2007)
Degree Days  
Heating Degree Days 6    
Growing Degree Days 8 (Base 50)    
Moisture  
Dew Point 42 °F    
Average Humidity 61    
Maximum Humidity 93    
Minimum Humidity 27    
Precipitation  
Precipitation 0.00 in - - ()
Sea Level Pressure  
Sea Level Pressure 30.12 in    
Wind  
Wind Speed 2 mph (NW)    
Max Wind Speed 12 mph    
Max Gust Speed 16 mph    
Visibility 10 miles    
Events      
Averages and records for this station are not official NWS values.
T = Trace of Precipitation, MM = Missing Value Source: NWS Daily Summary

Daily Weather History Graph

Daily Weather History Graph

Search for Another Location

Airport:

Trip Planner

Search our weather history database for the weather conditions in past years. The results will help you decide how hot, cold, wet, or windy it might be!

Date:

Astronomy

Apr. 09, 2012 Rise Set
Actual Time 6:20 AM CDT 7:11 PM CDT
Civil Twilight 5:55 AM CDT 7:37 PM CDT
Nautical Twilight 5:24 AM CDT 8:07 PM CDT
Astronomical Twilight 4:54 AM CDT 8:38 PM CDT
Moon 10:55 PM CDT (4/9) 8:17 AM CDT (4/9)
Length of Visible Light 13h 42m
Length of Day
12h 51m
Waning Gibbous, 88% of the Moon is Illuminated
Apr 9
Waning Gibbous
Apr 13
Last Quarter
Apr 21
New
Apr 29
First Quarter
May 5
Full

Hourly Weather History & Observations

Time (CDT) Temp. Windchill Dew Point Humidity Pressure Visibility Wind Dir Wind Speed Gust Speed Precip Events Conditions
12:15 AM 53.6 °F - 50.0 °F 88% 30.16 in 10.0 mi Calm Calm - N/A   Clear
12:35 AM 53.6 °F - 48.2 °F 82% 30.16 in 10.0 mi Calm Calm - N/A   Clear
12:55 AM 53.6 °F - 48.2 °F 82% 30.15 in 10.0 mi Calm Calm - N/A   Clear
1:15 AM 53.6 °F - 48.2 °F 82% 30.15 in 10.0 mi Calm Calm - N/A   Clear
1:35 AM 53.6 °F - 48.2 °F 82% 30.15 in 10.0 mi Calm Calm - N/A   Clear
1:55 AM 51.8 °F - 48.2 °F 88% 30.15 in 10.0 mi Calm Calm - N/A   Clear
2:15 AM 51.8 °F - 46.4 °F 82% 30.14 in 10.0 mi Calm Calm - N/A   Clear
2:35 AM 50.0 °F - 46.4 °F 87% 30.14 in 10.0 mi Calm Calm - N/A   Clear
2:55 AM 48.2 °F - 46.4 °F 93% 30.14 in 10.0 mi Calm Calm - N/A   Clear
3:15 AM 48.2 °F - 44.6 °F 87% 30.13 in 10.0 mi Calm Calm - N/A   Clear
3:35 AM 48.2 °F - 44.6 °F 87% 30.13 in 10.0 mi Calm Calm - N/A   Clear
3:55 AM 46.4 °F - 42.8 °F 87% 30.13 in 10.0 mi Calm Calm - N/A   Clear
4:15 AM 46.4 °F - 42.8 °F 87% 30.13 in 10.0 mi Calm Calm - N/A   Clear
4:35 AM 46.4 °F - 42.8 °F 87% 30.13 in 10.0 mi Calm Calm - N/A   Clear
4:55 AM 44.6 °F 41.4 °F 41.0 °F 87% 30.13 in 10.0 mi North 5.8 mph - N/A   Clear
5:15 AM 48.2 °F - 42.8 °F 82% 30.13 in 10.0 mi North 4.6 mph - N/A   Clear
5:35 AM 46.4 °F - 42.8 °F 87% 30.13 in 10.0 mi Calm Calm - N/A   Clear
5:55 AM 44.6 °F - 42.8 °F 93% 30.14 in 10.0 mi Calm Calm - N/A   Clear
6:15 AM 44.6 °F - 42.8 °F 93% 30.14 in 10.0 mi Calm Calm - N/A   Clear
6:35 AM 44.6 °F - 41.0 °F 87% 30.14 in 10.0 mi Calm Calm - N/A   Clear
6:55 AM 44.6 °F - 41.0 °F 87% 30.14 in 10.0 mi Calm Calm - N/A   Clear
7:15 AM 46.4 °F - 42.8 °F 87% 30.15 in 10.0 mi Calm Calm - N/A   Clear
7:35 AM 48.2 °F - 44.6 °F 87% 30.15 in 10.0 mi Calm Calm - N/A   Clear
7:55 AM 50.0 °F - 44.6 °F 82% 30.16 in 10.0 mi Calm Calm - N/A   Clear
8:15 AM 51.8 °F - 44.6 °F 76% 30.15 in 10.0 mi Calm Calm - N/A   Clear
8:35 AM 53.6 °F - 44.6 °F 72% 30.16 in 10.0 mi Calm Calm - N/A   Clear
8:55 AM 55.4 °F - 42.8 °F 63% 30.16 in 10.0 mi Calm Calm - N/A   Clear
9:15 AM 57.2 °F - 39.2 °F 51% 30.16 in 10.0 mi Calm Calm - N/A   Clear
9:35 AM 60.8 °F - 39.2 °F 45% 30.17 in 10.0 mi Calm Calm - N/A   Clear
9:55 AM 62.6 °F - 39.2 °F 42% 30.17 in 10.0 mi Calm Calm - N/A   Clear
10:15 AM 62.6 °F - 39.2 °F 42% 30.18 in 10.0 mi Calm Calm - N/A   Clear
10:35 AM 64.4 °F - 39.2 °F 40% 30.18 in 10.0 mi Calm Calm - N/A   Clear
10:55 AM 66.2 °F - 37.4 °F 35% 30.17 in 10.0 mi Calm Calm - N/A   Clear
11:15 AM 66.2 °F - 37.4 °F 35% 30.17 in 10.0 mi NNW 4.6 mph - N/A   Clear
11:35 AM 68.0 °F - 37.4 °F 33% 30.16 in 10.0 mi North 3.5 mph - N/A   Clear
11:55 AM 69.8 °F - 39.2 °F 33% 30.15 in 10.0 mi North 4.6 mph - N/A   Clear
12:15 PM 69.8 °F - 37.4 °F 31% 30.15 in 10.0 mi West 5.8 mph - N/A   Clear
12:35 PM 71.6 °F - 41.0 °F 33% 30.14 in 10.0 mi West 8.1 mph - N/A   Clear
12:55 PM 71.6 °F - 37.4 °F 29% 30.13 in 10.0 mi WNW 8.1 mph - N/A   Clear
1:15 PM 73.4 °F - 37.4 °F 27% 30.13 in 10.0 mi NNW 10.4 mph - N/A   Clear
1:35 PM 73.4 °F - 39.2 °F 29% 30.12 in 10.0 mi NNW 10.4 mph - N/A   Clear
1:55 PM 73.4 °F - 37.4 °F 27% 30.11 in 9.0 mi NNW 9.2 mph - N/A   Clear
2:15 PM 73.4 °F - 41.0 °F 31% 30.11 in 10.0 mi WNW 6.9 mph - N/A   Clear
2:35 PM 73.4 °F - 39.2 °F 29% 30.10 in 10.0 mi West 8.1 mph - N/A   Clear
2:55 PM 73.4 °F - 37.4 °F 27% 30.09 in 10.0 mi NNW 8.1 mph - N/A   Clear
3:15 PM 73.4 °F - 39.2 °F 29% 30.09 in 10.0 mi NW 9.2 mph - N/A   Clear
3:35 PM 73.4 °F - 39.2 °F 29% 30.08 in 10.0 mi WNW 11.5 mph 16.1 mph N/A   Clear
4:15 PM 73.4 °F - 37.4 °F 27% 30.08 in 10.0 mi NW 9.2 mph - N/A   Clear
4:35 PM 73.4 °F - 37.4 °F 27% 30.07 in 10.0 mi WNW 9.2 mph - N/A   Clear
4:55 PM 73.4 °F - 37.4 °F 27% 30.07 in 10.0 mi NW 10.4 mph - N/A   Clear
5:15 PM 71.6 °F - 37.4 °F 29% 30.07 in 10.0 mi NW 6.9 mph - N/A   Clear
5:35 PM 71.6 °F - 39.2 °F 31% 30.07 in 10.0 mi NW 5.8 mph - N/A   Clear
5:55 PM 71.6 °F - 37.4 °F 29% 30.07 in 10.0 mi NNW 6.9 mph - N/A   Clear
6:15 PM 69.8 °F - 37.4 °F 31% 30.06 in 10.0 mi NW 8.1 mph - N/A   Clear
6:35 PM 68.0 °F - 37.4 °F 33% 30.07 in 10.0 mi WNW 5.8 mph - N/A   Clear
6:55 PM 66.2 °F - 37.4 °F 35% 30.06 in 10.0 mi Calm Calm - N/A   Clear
7:15 PM 62.6 °F - 42.8 °F 48% 30.06 in 10.0 mi Calm Calm - N/A   Clear
7:35 PM 59.0 °F - 42.8 °F 55% 30.06 in 10.0 mi Calm Calm - N/A   Clear
7:55 PM 57.2 °F - 42.8 °F 59% 30.06 in 10.0 mi Calm Calm - N/A   Clear
8:35 PM 55.4 °F - 42.8 °F 63% 30.08 in 10.0 mi Calm Calm - N/A   Clear
8:55 PM 53.6 °F - 44.6 °F 72% 30.09 in 10.0 mi Calm Calm - N/A   Clear
9:15 PM 51.8 °F - 44.6 °F 76% 30.09 in 10.0 mi Calm Calm - N/A   Clear
9:35 PM 51.8 °F - 44.6 °F 76% 30.09 in 10.0 mi Calm Calm - N/A   Clear
9:55 PM 51.8 °F - 44.6 °F 76% 30.08 in 10.0 mi Calm Calm - N/A   Clear
10:15 PM 51.8 °F - 44.6 °F 76% 30.09 in 10.0 mi Calm Calm - N/A   Clear
10:35 PM 51.8 °F - 42.8 °F 71% 30.08 in 10.0 mi Calm Calm - N/A   Clear
10:55 PM 50.0 °F - 44.6 °F 82% 30.09 in 10.0 mi Calm Calm - N/A   Clear
11:15 PM 48.2 °F - 44.6 °F 87% 30.09 in 10.0 mi Calm Calm - N/A   Clear
11:35 PM 48.2 °F - 44.6 °F 87% 30.09 in 10.0 mi Calm Calm - N/A   Clear
11:55 PM 48.2 °F - 44.6 °F 87% 30.09 in 10.0 mi Calm Calm - N/A   Clear